DW4779 Weather Reports


Display with metric or nautical units.
time (UTC)temp
F
wind
direction
speed
MPH
gust
MPH
rain 1hr
in
rain 24hr
in
rain mn
in
humidity
%
barometer
mb
20260906224549 67 190 4.0 9.0 0.00 0.00 0.00 66 1015.2
20260906223057 67 190 0.0 3.0 0.00 0.00 0.00 66 1015.6
20260906221550 68 190 1.0 4.0 0.00 0.00 0.00 65 1015.5
20260906220056 67 190 0.0 5.0 0.00 0.00 0.00 65 1015.5
20260906214554 68 190 1.0 3.0 0.00 0.00 0.00 65 1015.4
20260906213103 67 190 0.0 5.0 0.00 0.00 0.00 65 1015.4
20260906211558 67 190 1.0 4.0 0.00 0.00 0.00 65 1015.6
20260906210057 66 44 0.0 4.0 0.00 0.00 0.00 65 1015.7
20260906204641 66 44 1.0 3.0 0.00 0.00 0.00 65 1015.8
20260906203050 65 44 2.0 5.0 0.00 0.00 0.00 66 1016.0
20260906201634 65 190 0.0 1.0 0.00 0.00 0.00 66 1016.0
20260906200053 65 0 0.0 2.0 0.00 0.00 0.00 67 1016.1
20260906194557 65 45 0.0 3.0 0.00 0.00 0.00 67 1016.2
20260906193050 64 0 0.0 6.0 0.00 0.00 0.00 69 1016.2
20260906191547 64 44 4.0 8.0 0.00 0.00 0.00 70 1016.3
20260906190051 64 45 2.0 7.0 0.00 0.00 0.00 71 1016.4
20260906184549 63 44 2.0 6.0 0.00 0.00 0.00 73 1016.5
20260906183100 62 0 1.0 5.0 0.00 0.00 0.00 75 1016.8
20260906181556 61 44 2.0 9.0 0.00 0.00 0.00 76 1017.0
20260906180056 59 190 3.0 8.0 0.00 0.00 0.00 86 1016.4
20260906174604 57 190 1.0 5.0 0.00 0.00 0.00 91 1017.0
20260906173054 57 190 5.0 7.0 0.00 0.00 0.00 90 1018.0
20260906171551 57 190 4.0 6.0 0.00 0.00 0.00 87 1018.1
20260906170050 57 190 2.0 6.0 0.00 0.00 0.00 85 1018.1
20260906164546 57 190 3.0 5.0 0.00 0.00 0.00 86 1018.1
20260906163055 56 190 0.0 4.0 0.00 0.00 0.00 86 1018.3
20260906161551 56 190 1.0 7.0 0.00 0.00 0.00 86 1018.2
20260906160050 55 190 4.0 10.0 0.00 0.00 0.00 87 1018.3
20260906154558 55 190 6.0 12.0 0.00 0.00 0.00 85 1018.4
20260906153107 56 190 6.0 12.0 0.00 0.00 0.00 84 1018.5
20260906151550 58 190 7.0 12.0 0.00 0.00 0.00 82 1018.8
20260906150057 59 190 3.0 10.0 0.00 0.00 0.00 80 1018.9
20260906144559 61 0 0.0 0.0 0.00 0.01 0.00 81 1019.1
20260906143050 61 0 0.0 2.0 0.00 0.01 0.00 81 1019.0
20260906141547 60 190 2.0 11.0 0.00 0.01 0.00 81 1018.2
20260906140056 60 45 4.0 7.0 0.00 0.01 0.00 82 1018.1
20260906134559 59 44 0.0 9.0 0.00 0.02 0.00 83 1018.6
20260906133054 59 44 5.0 9.0 0.00 0.02 0.00 83 1018.2
20260906131547 59 44 2.0 4.0 0.00 0.02 0.00 83 1018.3
20260906130103 58 0 0.0 3.0 0.00 0.02 0.00 84 1018.5
20260906124550 58 0 0.0 1.0 0.00 0.02 0.00 84 1018.8
20260906123050 58 190 0.0 6.0 0.00 0.02 0.00 84 1018.7
20260906121602 57 190 1.0 5.0 0.00 0.02 0.00 84 1018.1
20260906120054 57 190 1.0 5.0 0.00 0.02 0.00 84 1018.2
20260906114603 57 190 0.0 5.0 0.00 0.02 0.00 84 1018.2
20260906113050 57 190 1.0 5.0 0.00 0.02 0.00 84 1018.2
20260906111621 57 190 2.0 9.0 0.00 0.02 0.00 84 1018.2
20260906110051 57 190 1.0 6.0 0.00 0.02 0.00 85 1018.4
20260906104548 57 190 0.0 5.0 0.00 0.02 0.00 84 1018.6
20260906103053 56 0 0.0 5.0 0.00 0.02 0.00 85 1018.5
20260906101550 56 190 1.0 5.0 0.00 0.02 0.00 85 1018.6
20260906100049 57 190 2.0 5.0 0.00 0.02 0.00 84 1018.7
20260906094558 57 190 1.0 7.0 0.00 0.02 0.00 83 1018.5
20260906093101 57 190 2.0 6.0 0.00 0.02 0.00 82 1018.4
20260906091550 58 0 1.0 5.0 0.00 0.02 0.00 81 1018.7
20260906090057 58 224 2.0 6.0 0.00 0.02 0.00 81 1018.8
20260906084554 58 190 2.0 4.0 0.00 0.02 0.00 80 1018.9
20260906083053 58 190 1.0 7.0 0.00 0.02 0.00 80 1019.1
20260906081554 58 190 1.0 11.0 0.00 0.02 0.00 80 1019.3
20260906080054 58 190 2.0 5.0 0.00 0.02 0.00 80 1019.5
20260906074547 57 190 1.0 5.0 0.00 0.02 0.00 81 1019.5
20260906073101 57 190 1.0 4.0 0.00 0.02 0.00 81 1019.4
20260906071552 57 190 0.0 2.0 0.00 0.02 0.00 81 1019.6
20260906070127 58 190 0.0 5.0 0.00 0.02 0.00 80 1019.7
20260906064552 58 190 1.0 6.0 0.00 0.02 0.00 79 1020.1
20260906063052 59 190 1.0 7.0 0.00 0.02 0.00 77 1020.3
20260906061602 59 190 3.0 6.0 0.00 0.02 0.00 77 1020.2
20260906060048 59 190 1.0 6.0 0.00 0.02 0.00 77 1019.9
20260906054553 59 190 2.0 8.0 0.00 0.02 0.02 76 1019.7
20260906053051 59 190 2.0 10.0 0.00 0.02 0.02 74 1019.4
20260906051553 59 190 2.0 9.0 0.00 0.02 0.02 73 1019.3
20260906050108 60 190 2.0 6.0 0.00 0.02 0.02 72 1019.3
20260906044549 60 190 2.0 6.0 0.00 0.02 0.02 70 1019.3
20260906043101 60 190 2.0 7.0 0.00 0.02 0.02 69 1019.8
20260906041550 60 190 3.0 11.0 0.00 0.02 0.02 68 1018.6
20260906040110 60 190 3.0 11.0 0.00 0.02 0.02 68 1018.3
20260906034548 60 190 2.0 6.0 0.00 0.02 0.02 68 1018.7
20260906033057 61 190 2.0 6.0 0.00 0.02 0.02 67 1018.8
20260906031551 61 44 2.0 7.0 0.00 0.02 0.02 65 1018.9
20260906030050 61 190 3.0 10.0 0.00 0.02 0.02 65 1018.7
20260906024557 61 190 3.0 9.0 0.00 0.02 0.02 64 1017.6
20260906023105 62 190 4.0 10.0 0.00 0.02 0.02 64 1017.5
20260906021550 63 44 2.0 10.0 0.00 0.02 0.02 62 1017.6
20260906020058 64 45 3.0 8.0 0.00 0.02 0.02 59 1017.5
20260906014613 65 190 3.0 8.0 0.00 0.02 0.02 56 1017.5
20260906013050 66 190 2.0 7.0 0.00 0.02 0.02 54 1017.4
20260906011555 68 190 3.0 11.0 0.00 0.02 0.02 52 1017.4
20260906010047 70 190 3.0 8.0 0.00 0.02 0.02 48 1017.4
20260906004607 70 190 2.0 8.0 0.00 0.02 0.02 46 1017.6
20260906003056 73 190 3.0 8.0 0.00 0.02 0.02 42 1017.3
20260906001550 74 190 2.0 7.0 0.00 0.02 0.02 39 1017.3
20260906000052 75 44 2.0 8.0 0.00 0.02 0.02 35 1017.4
20260905234557 76 190 2.0 4.0 0.00 0.02 0.02 37 1017.4
20260905233055 75 0 0.0 3.0 0.00 0.02 0.02 35 1017.7
20260905231551 75 44 2.0 4.0 0.00 0.02 0.02 34 1017.6